University AP, Davis, CA, CA

8:08 AM PST on December 06, 2019 (GMT -0800)
University AP, Davis, CA

Weather History for KEDU - October, 2019

Change the Weather History Date:

Friday, October 4, 2019

  Actual Average (KSMF) Record (KSMF)
Temperature  
Mean Temperature 60 °F -  
Max Temperature 75 °F 83 °F 98 °F (1985)
Min Temperature 46 °F 52 °F 43 °F (2019)
Degree Days  
Heating Degree Days 4    
Growing Degree Days 10 (Base 50)    
Moisture  
Dew Point 34 °F    
Average Humidity 42    
Maximum Humidity 81    
Minimum Humidity 17    
Precipitation  
Precipitation 0.00 in - - ()
Sea Level Pressure  
Sea Level Pressure 30.10 in    
Wind  
Wind Speed 5 mph ()    
Max Wind Speed 16 mph    
Max Gust Speed 22 mph    
Visibility 9.9 miles    
Events      
Averages and records for this station are not official NWS values.
T = Trace of Precipitation, MM = Missing Value Source: Averaged Metar Reports

Daily Weather History Graph

Daily Weather History Graph

Search for Another Location

Airport or City:

Astronomy

Oct. 04, 2019 Rise Set
Actual Time 7:05 AM PDT 6:45 PM PDT
Civil Twilight 6:39 AM PDT 7:11 PM PDT
Nautical Twilight 6:08 AM PDT 7:42 PM PDT
Astronomical Twilight 5:37 AM PDT 8:13 PM PDT
Moon 1:38 PM PDT (10/4) 11:23 PM PDT (10/4)
Length of Visible Light 12h 32m
Length of Day
11h 39m
Waxing Crescent, 41% of the Moon is Illuminated
Oct 4
Waxing Crescent
Oct 5
First Quarter
Oct 13
Full
Oct 21
Last Quarter
Oct 27
New

Hourly Weather History & Observations

Time (PDT) Temp. Dew Point Humidity Pressure Visibility Wind Dir Wind Speed Gust Speed Precip Events Conditions
12:15 AM 50.0 °F 41.0 °F 71% 29.99 in 10.0 mi SW 4.6 mph - N/A   Clear
12:35 AM 51.8 °F 37.4 °F 58% 30.00 in 10.0 mi Calm Calm - N/A   Clear
12:55 AM 48.2 °F 41.0 °F 76% 30.00 in 10.0 mi Calm Calm - N/A   Clear
1:15 AM 51.8 °F 42.8 °F 71% 30.01 in 10.0 mi Calm Calm - N/A   Clear
1:40 AM 48.2 °F 41.0 °F 76% 30.02 in 10.0 mi Calm Calm - N/A   Clear
1:55 AM 46.4 °F 41.0 °F 81% 30.02 in 10.0 mi Calm Calm - N/A   Clear
2:20 AM 48.2 °F 41.0 °F 76% 30.03 in 10.0 mi Calm Calm - N/A   Clear
2:35 AM 50.0 °F 37.4 °F 62% 30.03 in 10.0 mi WNW 4.6 mph - N/A   Clear
3:00 AM 51.8 °F 35.6 °F 54% 30.04 in 10.0 mi WNW 4.6 mph - N/A   Clear
3:15 AM 50.0 °F 35.6 °F 58% 30.04 in 10.0 mi WNW 5.8 mph - N/A   Clear
3:40 AM 51.8 °F 35.6 °F 54% 30.05 in 10.0 mi WNW 3.5 mph - N/A   Clear
3:55 AM 53.6 °F 35.6 °F 51% 30.05 in 10.0 mi WNW 6.9 mph - N/A   Clear
4:15 AM 53.6 °F 35.6 °F 51% 30.06 in 10.0 mi WNW 4.6 mph - N/A   Clear
4:35 AM 51.8 °F 35.6 °F 54% 30.06 in 10.0 mi WNW 3.5 mph - N/A   Clear
4:55 AM 51.8 °F 35.6 °F 54% 30.07 in 10.0 mi NW 4.6 mph - N/A   Clear
5:20 AM 50.0 °F 35.6 °F 58% 30.08 in 5.0 mi West 4.6 mph - N/A   Clear
5:35 AM 48.2 °F 35.6 °F 62% 30.08 in 10.0 mi WNW 4.6 mph - N/A   Clear
5:55 AM 50.0 °F 35.6 °F 58% 30.08 in 10.0 mi NW 3.5 mph - N/A   Clear
6:15 AM 50.0 °F 35.6 °F 58% 30.09 in 10.0 mi NNW 5.8 mph - N/A   Clear
6:40 AM 53.6 °F 35.6 °F 51% 30.10 in 10.0 mi NNW 4.6 mph - N/A   Clear
6:55 AM 53.6 °F 35.6 °F 51% 30.10 in 10.0 mi NNW 5.8 mph - N/A   Clear
7:20 AM 53.6 °F 33.8 °F 47% 30.11 in 10.0 mi North 6.9 mph - N/A   Clear
7:35 AM 53.6 °F 33.8 °F 47% 30.11 in 10.0 mi NNW 6.9 mph - N/A   Clear
8:00 AM 55.4 °F 35.6 °F 47% 30.12 in 10.0 mi NNW 6.9 mph - N/A   Clear
8:15 AM 55.4 °F 35.6 °F 47% 30.13 in 10.0 mi North 5.8 mph - N/A   Clear
8:35 AM 55.4 °F 35.6 °F 47% 30.14 in 10.0 mi North 9.2 mph - N/A   Clear
8:55 AM 55.4 °F 39.2 °F 54% 30.14 in 10.0 mi North 11.5 mph - N/A   Clear
9:15 AM 55.4 °F 41.0 °F 58% 30.15 in 10.0 mi North 12.7 mph 18.4 mph N/A   Clear
9:40 AM 57.2 °F 41.0 °F 55% 30.16 in 10.0 mi North 12.7 mph - N/A   Clear
9:55 AM 57.2 °F 41.0 °F 55% 30.17 in 10.0 mi North 11.5 mph - N/A   Clear
10:20 AM 59.0 °F 41.0 °F 51% 30.17 in 10.0 mi North 12.7 mph - N/A   Clear
10:35 AM 60.8 °F 42.8 °F 52% 30.16 in 10.0 mi North 9.2 mph - N/A   Clear
11:00 AM 64.4 °F 39.2 °F 40% 30.16 in 10.0 mi North 12.7 mph 17.3 mph N/A   Clear
11:15 AM 66.2 °F 37.4 °F 35% 30.16 in 10.0 mi North 16.1 mph 19.6 mph N/A   Clear
11:40 AM 66.2 °F 37.4 °F 35% 30.15 in 10.0 mi North 11.5 mph - N/A   Clear
11:55 AM 68.0 °F 35.6 °F 30% 30.15 in 10.0 mi North 10.4 mph 19.6 mph N/A   Clear
12:20 PM 68.0 °F 35.6 °F 30% 30.15 in 10.0 mi North 16.1 mph 21.9 mph N/A   Clear
12:35 PM 69.8 °F 37.4 °F 31% 30.14 in 10.0 mi North 11.5 mph 18.4 mph N/A   Clear
12:55 PM 69.8 °F 37.4 °F 31% 30.14 in 10.0 mi North 11.5 mph - N/A   Clear
1:15 PM 71.6 °F 37.4 °F 29% 30.14 in 10.0 mi North 13.8 mph 17.3 mph N/A   Clear
1:35 PM 71.6 °F 35.6 °F 27% 30.13 in 10.0 mi NNW 11.5 mph 18.4 mph N/A   Clear
2:00 PM 71.6 °F 33.8 °F 25% 30.12 in 10.0 mi NNW 11.5 mph - N/A   Clear
2:15 PM 73.4 °F 32.0 °F 22% 30.11 in 10.0 mi North 12.7 mph 16.1 mph N/A   Clear
2:40 PM 73.4 °F 32.0 °F 22% 30.11 in 10.0 mi NNW 9.2 mph - N/A   Clear
2:55 PM 73.4 °F 32.0 °F 22% 30.11 in 10.0 mi North 9.2 mph - N/A   Clear
3:20 PM 75.2 °F 28.4 °F 18% 30.10 in 10.0 mi NNW 13.8 mph 17.3 mph N/A   Clear
3:35 PM 75.2 °F 28.4 °F 18% 30.09 in 10.0 mi North 10.4 mph - N/A   Clear
4:00 PM 75.2 °F 28.4 °F 18% 30.10 in 10.0 mi NNW 13.8 mph 17.3 mph N/A   Clear
4:20 PM 75.2 °F 26.6 °F 17% 30.10 in 10.0 mi North 10.4 mph - N/A   Clear
4:35 PM 75.2 °F 26.6 °F 17% 30.09 in 10.0 mi NNW 10.4 mph 18.4 mph N/A   Clear
5:00 PM 75.2 °F 26.6 °F 17% 30.09 in 10.0 mi NNW 6.9 mph - N/A   Clear
5:15 PM 75.2 °F 26.6 °F 17% 30.09 in 10.0 mi NNW 9.2 mph - N/A   Clear
5:40 PM 73.4 °F 26.6 °F 18% 30.09 in 10.0 mi North 8.1 mph - N/A   Clear
5:55 PM 73.4 °F 28.4 °F 19% 30.09 in 10.0 mi NNW 8.1 mph - N/A   Clear
6:15 PM 73.4 °F 30.2 °F 20% 30.08 in 10.0 mi NNW 6.9 mph - N/A   Clear
6:40 PM 71.6 °F 30.2 °F 22% 30.08 in 10.0 mi NNW 3.5 mph - N/A   Clear
6:55 PM 69.8 °F 32.0 °F 25% 30.09 in 10.0 mi North 3.5 mph - N/A   Clear
7:20 PM 68.0 °F 32.0 °F 26% 30.09 in 10.0 mi NNW 3.5 mph - N/A   Clear
7:35 PM 59.0 °F 35.6 °F 42% 30.10 in 10.0 mi Calm Calm - N/A   Clear
7:55 PM 64.4 °F 30.2 °F 28% 30.10 in 10.0 mi North 5.8 mph - N/A   Clear
8:20 PM 64.4 °F 28.4 °F 26% 30.10 in 10.0 mi NNW 3.5 mph - N/A   Clear
8:35 PM 59.0 °F 32.0 °F 36% 30.11 in 10.0 mi Calm Calm - N/A   Clear
9:00 PM 57.2 °F 32.0 °F 38% 30.11 in 10.0 mi WNW 3.5 mph - N/A   Clear
9:20 PM 53.6 °F 32.0 °F 44% 30.11 in 10.0 mi West 3.5 mph - N/A   Clear
9:35 PM 55.4 °F 32.0 °F 41% 30.11 in 10.0 mi NW 4.6 mph - N/A   Clear
10:00 PM 59.0 °F 30.2 °F 34% 30.11 in 10.0 mi WNW 5.8 mph - N/A   Clear
10:15 PM 57.2 °F 30.2 °F 36% 30.11 in 10.0 mi West 5.8 mph - N/A   Clear
10:40 PM 55.4 °F 32.0 °F 41% 30.11 in 10.0 mi West 3.5 mph - N/A   Clear
10:55 PM 55.4 °F 30.2 °F 38% 30.12 in 10.0 mi WNW 3.5 mph - N/A   Clear
11:20 PM 55.4 °F 30.2 °F 38% 30.12 in 10.0 mi WNW 3.5 mph - N/A   Clear
11:35 PM 53.6 °F 30.2 °F 41% 30.12 in 10.0 mi Calm Calm - N/A   Clear